Appleton, MN

5:24 AM CDT on September 26, 2017 (GMT -0500)
Appleton Municipal

Weather History for KAQP - June, 2014

Change the Weather History Date:

Sunday, June 8, 2014

  Actual Average Record
Temperature  
Mean Temperature 60 °F -  
Max Temperature 73 °F 73 °F 89 °F (2012)
Min Temperature 46 °F 52 °F 44 °F (2007)
Degree Days  
Heating Degree Days 6    
Growing Degree Days 10 (Base 50)    
Moisture  
Dew Point 44 °F    
Average Humidity 59    
Maximum Humidity 93    
Minimum Humidity 25    
Precipitation  
Precipitation 0.00 in - - ()
Sea Level Pressure  
Sea Level Pressure 30.08 in    
Wind  
Wind Speed 1 mph (South)    
Max Wind Speed 9 mph    
Max Gust Speed -    
Visibility 10 miles    
Events      
Averages and records for this station are not official NWS values.
T = Trace of Precipitation, MM = Missing Value Source: NWS Daily Summary

Daily Weather History Graph

Daily Weather History Graph

Search for Another Location

Airport or City:

Trip Planner

Search our weather history database for the weather conditions in past years. The results will help you decide how hot, cold, wet, or windy it might be!

Date:

Astronomy

Jun. 08, 2014 Rise Set
Actual Time 5:36 AM CDT 9:09 PM CDT
Civil Twilight 4:59 AM CDT 9:47 PM CDT
Nautical Twilight 4:10 AM CDT 10:36 PM CDT
Astronomical Twilight 3:05 AM CDT 11:41 PM CDT
Moon 4:17 PM CDT (6/8) 2:43 AM CDT (6/8)
Length of Visible Light 16h 47m
Length of Day
15h 32m
Waxing Gibbous, 77% of the Moon is Illuminated
Jun 8
Waxing Gibbous
Jun 12
Full
Jun 19
Last Quarter
Jun 27
New
Jul 5
First Quarter

Hourly Weather History & Observations

Time (CDT) Temp. Dew Point Humidity Pressure Visibility Wind Dir Wind Speed Gust Speed Precip Events Conditions
12:15 AM 55.4 °F 48.2 °F 77% 30.09 in 10.0 mi Calm Calm - N/A   Clear
12:34 AM 53.6 °F 48.2 °F 82% 30.09 in 10.0 mi Calm Calm - N/A   Clear
12:54 AM 53.6 °F 48.2 °F 82% 30.09 in 10.0 mi Calm Calm - N/A   Clear
1:14 AM 51.8 °F 48.2 °F 88% 30.09 in 10.0 mi Calm Calm - N/A   Clear
1:34 AM 51.8 °F 48.2 °F 88% 30.09 in 10.0 mi Calm Calm - N/A   Clear
1:55 AM 51.8 °F 48.2 °F 88% 30.09 in 10.0 mi Calm Calm - N/A   Clear
2:15 AM 51.8 °F 48.2 °F 88% 30.09 in 10.0 mi Calm Calm - N/A   Clear
2:35 AM 48.2 °F 46.4 °F 93% 30.09 in 10.0 mi SW 3.5 mph - N/A   Clear
2:54 AM 50.0 °F 46.4 °F 87% 30.09 in 10.0 mi Calm Calm - N/A   Clear
3:14 AM 48.2 °F 46.4 °F 93% 30.09 in 10.0 mi Calm Calm - N/A   Clear
3:34 AM 50.0 °F 46.4 °F 87% 30.09 in 10.0 mi Calm Calm - N/A   Clear
3:55 AM 48.2 °F 46.4 °F 93% 30.10 in 10.0 mi Calm Calm - N/A   Clear
4:14 AM 48.2 °F 46.4 °F 93% 30.10 in 10.0 mi Calm Calm - N/A   Clear
4:35 AM 48.2 °F 44.6 °F 87% 30.10 in 10.0 mi Calm Calm - N/A   Clear
4:55 AM 48.2 °F 44.6 °F 87% 30.10 in 10.0 mi Calm Calm - N/A   Clear
5:15 AM 48.2 °F 44.6 °F 87% 30.10 in 10.0 mi Calm Calm - N/A   Clear
5:34 AM 48.2 °F 44.6 °F 87% 30.11 in 10.0 mi Calm Calm - N/A   Clear
5:54 AM 46.4 °F 44.6 °F 93% 30.10 in 10.0 mi Calm Calm - N/A   Clear
6:15 AM 48.2 °F 46.4 °F 93% 30.10 in 10.0 mi Calm Calm - N/A   Clear
6:35 AM 50.0 °F 46.4 °F 87% 30.10 in 10.0 mi Calm Calm - N/A   Clear
6:54 AM 51.8 °F 48.2 °F 88% 30.11 in 10.0 mi Calm Calm - N/A   Clear
7:15 AM 53.6 °F 50.0 °F 88% 30.11 in 10.0 mi Calm Calm - N/A   Clear
7:35 AM 55.4 °F 48.2 °F 77% 30.12 in 10.0 mi Calm Calm - N/A   Clear
7:54 AM 57.2 °F 50.0 °F 77% 30.12 in 10.0 mi Calm Calm - N/A   Clear
8:15 AM 62.6 °F 48.2 °F 59% 30.12 in 10.0 mi Calm Calm - N/A   Clear
8:35 AM 62.6 °F 46.4 °F 55% 30.12 in 10.0 mi Calm Calm - N/A   Clear
8:55 AM 64.4 °F 44.6 °F 49% 30.12 in 10.0 mi Calm Calm - N/A   Clear
9:14 AM 64.4 °F 42.8 °F 45% 30.12 in 10.0 mi Calm Calm - N/A   Clear
9:35 AM 66.2 °F 44.6 °F 46% 30.13 in 10.0 mi Calm Calm - N/A   Clear
9:55 AM 66.2 °F 44.6 °F 46% 30.13 in 10.0 mi Calm Calm - N/A   Clear
1:15 PM 71.6 °F 37.4 °F 29% 30.11 in 10.0 mi ESE 6.9 mph - N/A   Clear
1:17 PM 71.6 °F 37.4 °F 29% 30.11 in 10.0 mi SE 9.2 mph - N/A   Clear
1:34 PM 71.6 °F 37.4 °F 29% 30.10 in 10.0 mi South 5.8 mph - N/A   Clear
1:54 PM 71.6 °F 37.4 °F 29% 30.10 in 10.0 mi South 8.1 mph - N/A   Scattered Clouds
2:14 PM 71.6 °F 35.6 °F 27% 30.10 in 10.0 mi South 4.6 mph - N/A   Scattered Clouds
2:35 PM 73.4 °F 37.4 °F 27% 30.09 in 10.0 mi SSE 8.1 mph - N/A   Scattered Clouds
2:55 PM 73.4 °F 35.6 °F 25% 30.09 in 10.0 mi SW 8.1 mph - N/A   Scattered Clouds
3:14 PM 73.4 °F 37.4 °F 27% 30.09 in 10.0 mi SSE 5.8 mph - N/A   Mostly Cloudy
3:35 PM 71.6 °F 37.4 °F 29% 30.08 in 10.0 mi Calm Calm - N/A   Scattered Clouds
3:55 PM 71.6 °F 35.6 °F 27% 30.08 in 7.0 mi SSW 4.6 mph - N/A   Scattered Clouds
4:15 PM 71.6 °F 37.4 °F 29% 30.07 in 10.0 mi South 8.1 mph - N/A   Mostly Cloudy
4:34 PM 71.6 °F 35.6 °F 27% 30.07 in 10.0 mi Calm Calm - N/A   Mostly Cloudy
4:55 PM 71.6 °F 37.4 °F 29% 30.06 in 10.0 mi SSE 3.5 mph - N/A   Scattered Clouds
5:14 PM 71.6 °F 39.2 °F 31% 30.06 in 10.0 mi SW 5.8 mph - N/A   Clear
5:35 PM 71.6 °F 37.4 °F 29% 30.06 in 10.0 mi SW 4.6 mph - N/A   Clear
5:55 PM 69.8 °F 41.0 °F 35% 30.05 in 10.0 mi South 3.5 mph - N/A   Clear
6:14 PM 69.8 °F 39.2 °F 33% 30.05 in 10.0 mi South 3.5 mph - N/A   Clear
6:35 PM 69.8 °F 41.0 °F 35% 30.04 in 10.0 mi SW 3.5 mph - N/A   Clear
6:54 PM 68.0 °F 42.8 °F 40% 30.04 in 10.0 mi Calm Calm - N/A   Clear
7:15 PM 68.0 °F 42.8 °F 40% 30.04 in 10.0 mi Calm Calm - N/A   Clear
7:35 PM 68.0 °F 44.6 °F 43% 30.04 in 10.0 mi Calm Calm - N/A   Clear
7:55 PM 68.0 °F 42.8 °F 40% 30.04 in 10.0 mi Calm Calm - N/A   Clear
8:15 PM 66.2 °F 42.8 °F 43% 30.04 in 10.0 mi Calm Calm - N/A   Clear
8:34 PM 66.2 °F 44.6 °F 46% 30.04 in 10.0 mi Calm Calm - N/A   Clear
8:55 PM 66.2 °F 48.2 °F 52% 30.04 in 10.0 mi Calm Calm - N/A   Clear
9:35 PM 62.6 °F 46.4 °F 55% 30.05 in 10.0 mi Calm Calm - N/A   Clear
9:55 PM 62.6 °F 48.2 °F 59% 30.05 in 10.0 mi Calm Calm - N/A   Clear
10:14 PM 62.6 °F 46.4 °F 55% 30.05 in 10.0 mi Calm Calm - N/A   Scattered Clouds
10:35 PM 62.6 °F 50.0 °F 63% 30.05 in 10.0 mi Calm Calm - N/A   Clear
10:55 PM 62.6 °F 51.8 °F 68% 30.05 in 10.0 mi Calm Calm - N/A   Clear
11:15 PM 62.6 °F 53.6 °F 72% 30.05 in 5.0 mi Calm Calm - N/A   Haze
11:34 PM 60.8 °F 53.6 °F 77% 30.05 in 10.0 mi Calm Calm - N/A   Clear
11:55 PM 62.6 °F 53.6 °F 72% 30.05 in 10.0 mi Calm Calm - N/A   Clear